Precipitable_Water
1.43 1.51 1.73 1.50 1.75 1.73 1.66 1.55 1.46 1.29 1.23 1.28 1.27 1.26 1.14 1.07 1.10 1.05 1.01 1.09 1.11 1.05 0.99 0.92 0.93 0.87 0.83 0.79 0.78 0.80 0.82 0.85
1.37 1.49 1.58 1.60 1.70 1.79 1.66 1.59 1.44 1.38 1.28 1.27 1.25 1.21 1.19 1.01 1.03 1.00 1.05 1.10 1.13 1.04 1.02 0.97 0.94 0.91 0.87 0.81 0.80 0.82 0.84 0.85
1.31 1.44 1.51 1.62 1.62 1.67 1.74 1.73 1.66 1.58 1.41 1.31 1.27 1.27 1.28 1.00 0.96 0.97 1.07 1.14 1.07 1.07 1.04 1.01 0.95 0.91 0.92 0.83 0.83 0.85 0.85 0.84
1.28 1.39 1.48 1.53 1.55 1.62 1.67 1.82 1.74 1.67 1.51 1.36 1.32 1.27 1.22 0.95 0.93 0.98 1.08 1.11 1.10 1.09 1.05 1.00 0.97 0.94 0.93 0.86 0.83 0.82 0.81 0.82
1.27 1.38 1.52 1.54 1.56 1.58 1.63 1.71 1.73 1.67 1.59 1.47 1.27 1.17 1.10 0.93 0.91 0.98 1.05 1.12 1.12 1.12 1.08 1.03 0.96 0.93 0.86 0.82 0.82 0.79 0.79 0.80
1.28 1.39 1.46 1.50 1.54 1.53 1.60 1.56 1.65 1.66 1.58 1.41 1.16 1.08 1.01 0.92 0.89 0.92 0.96 1.09 1.09 1.12 1.06 1.02 0.95 0.91 0.83 0.80 0.80 0.79 0.79 0.78
1.33 1.42 1.43 1.46 1.51 1.54 1.56 1.57 1.61 1.63 1.55 1.38 1.18 1.08 0.98 0.89 0.87 0.85 0.92 0.96 1.02 1.04 1.01 0.96 0.89 0.86 0.82 0.78 0.77 0.78 0.78 0.77
1.34 1.38 1.43 1.46 1.47 1.52 1.56 1.59 1.62 1.57 1.45 1.31 1.18 1.00 0.91 0.87 0.85 0.87 0.92 0.97 1.00 0.99 0.97 0.93 0.86 0.84 0.81 0.81 0.79 0.79 0.77 0.77
1.33 1.36 1.43 1.44 1.41 1.53 1.56 1.58 1.61 1.48 1.45 1.28 1.14 1.05 0.99 0.94 0.94 0.96 0.99 0.98 0.98 0.99 1.00 0.97 0.88 0.83 0.80 0.82 0.80 0.79 0.78 0.78
1.29 1.37 1.40 1.40 1.44 1.48 1.54 1.56 1.55 1.53 1.42 1.26 1.13 1.09 1.07 1.02 1.03 1.06 1.10 1.08 1.03 1.02 0.98 0.94 0.90 0.84 0.79 0.77 0.75 0.76 0.77 0.77
1.30 1.34 1.33 1.38 1.45 1.47 1.51 1.48 1.49 1.46 1.42 1.24 1.13 1.10 1.09 1.10 1.12 1.15 1.16 1.10 1.09 1.06 1.01 0.97 0.92 0.88 0.85 0.81 0.79 0.73 0.69 0.68
1.25 1.28 1.36 1.41 1.42 1.45 1.45 1.44 1.43 1.43 1.38 1.33 1.17 1.13 1.12 1.15 1.15 1.15 1.18 1.15 1.11 1.08 1.02 1.01 0.98 0.94 0.90 0.91 0.88 0.84 0.78 0.74
1.24 1.19 1.27 1.35 1.34 1.33 1.31 1.30 1.33 1.33 1.32 1.23 1.27 1.15 1.16 1.12 1.11 1.11 1.12 1.09 1.06 1.06 1.04 0.99 0.96 0.95 0.89 0.92 0.91 0.88 0.85 0.84
1.12 1.18 1.25 1.27 1.35 1.33 1.32 1.33 1.36 1.34 1.31 1.23 1.28 1.23 1.18 1.15 1.09 1.07 1.08 1.05 1.04 1.00 0.98 0.96 0.96 0.94 0.85 0.89 0.80 0.84 0.90 0.92
1.10 1.17 1.23 1.28 1.33 1.35 1.32 1.29 1.27 1.21 1.24 1.28 1.22 1.20 1.15 1.10 1.10 1.08 1.06 1.02 0.99 0.97 0.93 0.92 0.90 0.98 0.97 0.92 0.80 0.77 0.87 0.96
0.98 1.07 1.19 1.28 1.34 1.31 1.26 1.14 1.12 1.15 1.13 1.18 1.24 1.21 1.17 1.16 1.11 1.05 1.01 1.00 0.99 0.97 0.97 0.95 0.96 0.88 0.93 0.94 0.97 0.94 0.84 0.80
0.85 0.93 1.03 1.13 1.21 1.23 1.20 1.09 1.06 1.13 1.16 1.14 1.21 1.23 1.23 1.12 1.05 1.02 1.04 1.07 1.05 1.03 0.99 0.98 0.96 0.92 0.88 0.88 0.89 0.91 0.96 0.89
0.71 0.78 0.85 0.93 0.99 1.02 0.99 0.97 0.92 0.97 1.03 1.02 1.01 1.01 1.05 1.09 1.11 1.12 1.10 1.03 1.00 0.99 0.99 0.99 0.98 0.96 0.96 0.99 0.95 0.94 0.93 0.93
0.69 0.68 0.72 0.81 0.81 0.85 0.88 0.87 0.86 0.84 0.85 0.88 0.86 0.88 0.96 1.00 1.03 1.02 0.99 0.98 0.96 0.96 0.96 0.98 1.00 1.00 1.03 1.01 1.07 1.05 1.07 1.04
0.67 0.68 0.68 0.76 0.81 0.83 0.87 0.89 0.90 0.86 0.87 0.86 0.85 0.87 0.94 0.94 0.93 0.94 0.95 0.96 0.96 0.99 0.99 1.00 1.03 1.06 1.07 1.10 1.12 1.17 1.17 1.13
Wind_Speed
14 12 21 26 34 33 30 31 31 28 28 28 27 28 25 23 22 20 17 17 16 14 12 11 9 8 7 6 7 6 5 5
9 9 19 24 30 31 31 30 31 29 29 30 29 28 26 25 22 20 19 18 16 14 12 10 9 8 7 6 6 5 4 5
5 4 14 23 28 32 29 33 33 29 30 32 31 29 27 26 24 21 20 18 17 15 13 11 10 8 6 6 5 5 5 5
7 6 8 11 20 36 32 35 36 30 29 33 31 31 28 28 25 23 20 19 18 16 13 11 10 8 6 6 5 6 6 6
12 10 9 11 11 23 36 37 34 33 32 32 32 32 32 29 27 24 21 20 18 15 13 11 10 9 8 7 6 6 7 6
12 11 11 10 11 14 33 43 37 37 35 34 34 34 30 30 27 25 22 20 18 15 13 11 10 9 9 8 8 8 8 8
11 10 10 10 11 15 30 39 41 39 37 37 35 33 32 31 28 25 22 20 18 16 14 11 10 9 9 8 9 9 9 9
10 10 9 8 9 14 28 36 40 42 39 38 37 34 32 31 28 25 22 20 18 16 13 12 11 11 10 10 10 10 10 11
9 11 9 6 4 13 27 37 39 39 37 39 38 34 33 32 28 24 23 21 17 15 13 12 11 11 11 11 11 11 11 12
11 10 9 6 7 15 28 31 37 35 38 38 36 34 33 32 29 24 23 22 19 16 14 13 12 11 11 12 13 13 13 13
11 11 11 10 13 19 25 27 31 33 35 37 34 32 33 31 29 25 23 22 20 18 15 14 13 13 13 13 13 14 14 14
13 12 14 14 17 18 20 22 26 33 34 32 32 31 31 29 27 26 24 22 21 18 17 16 15 14 14 14 14 15 15 16
14 14 15 17 18 19 20 19 23 27 31 33 31 30 30 29 28 26 24 23 21 19 18 17 16 15 14 15 16 16 17 18
13 15 17 18 19 18 21 19 20 24 28 31 30 28 27 28 28 26 26 24 22 20 19 17 16 16 16 15 16 17 20 21
11 15 18 20 20 20 19 19 20 24 26 28 31 30 27 28 27 27 26 24 23 21 20 19 18 18 19 18 17 19 19 20
8 10 15 19 21 22 21 21 20 23 27 29 28 28 28 28 27 27 26 24 23 21 20 20 20 20 21 23 23 22 22 22
8 10 13 15 17 19 20 21 19 20 23 26 28 26 27 26 26 25 24 24 23 22 22 22 23 24 25 24 26 26 25 26
9 10 12 14 16 17 19 20 19 19 21 23 24 24 24 25 25 25 24 23 23 23 23 24 25 27 28 28 28 27 27 27
10 11 12 14 16 17 19 19 19 19 21 21 22 23 23 23 24 24 24 26 26 26 27 27 29 30 31 32 32 33 33 31
12 12 12 13 15 16 18 19 18 18 19 20 20 22 23 24 24 25 26 27 29 29 30 31 32 33 34 34 37 37 37 36
Wind_Direction
266 254 206 210 206 205 196 195 196 197 196 193 190 187 186 184 182 180 179 175 173 171 169 167 166 164 161 164 165 169 173 180
259 240 216 210 207 203 206 200 196 197 195 193 189 186 186 184 182 180 179 178 177 175 173 170 170 165 162 171 175 181 192 193
254 234 218 217 210 214 209 202 200 195 194 192 190 190 188 184 183 181 178 179 179 178 177 176 173 174 181 185 202 217 206 199
240 239 215 212 223 216 219 206 195 198 192 190 193 192 192 185 182 181 181 181 181 182 184 184 188 194 203 209 225 212 206 202
245 237 227 212 217 217 210 204 202 198 197 196 193 189 184 185 183 184 184 184 185 188 191 198 204 214 220 219 212 212 209 206
231 225 217 223 230 224 210 205 205 199 196 193 189 186 188 185 185 187 186 189 190 193 195 202 213 223 217 221 220 221 219 218
217 211 219 232 244 235 204 200 200 197 191 191 187 188 187 188 187 187 190 191 194 194 201 211 219 218 224 227 228 229 226 224
205 205 214 234 257 222 194 192 191 190 191 190 188 188 188 188 188 189 191 193 195 201 211 218 224 226 231 231 233 233 233 231
200 202 206 225 284 189 184 185 182 183 185 187 191 189 188 188 188 191 195 196 197 201 214 223 225 232 231 234 235 236 238 238
194 190 190 173 141 152 166 170 179 185 188 189 188 193 194 194 198 197 199 201 207 216 223 225 230 233 235 239 240 242 244 244
193 191 180 166 147 147 160 172 182 185 188 190 195 196 197 200 201 203 204 208 215 220 226 229 234 239 242 243 244 245 247 247
191 186 183 178 167 160 163 169 182 186 190 192 195 196 194 198 201 204 208 213 216 222 227 233 239 242 246 248 250 249 250 252
192 192 185 183 178 178 175 174 179 187 191 192 192 194 199 202 204 208 213 217 223 228 230 235 243 247 248 253 252 253 256 258
195 197 193 187 186 185 181 183 184 184 188 194 196 196 201 207 211 216 218 222 224 229 232 240 243 243 250 255 258 260 261 262
191 198 199 197 195 188 194 192 190 193 194 197 203 207 209 210 215 218 220 224 228 229 232 237 245 249 253 257 262 264 268 268
171 181 192 197 200 202 204 200 204 204 204 206 206 207 210 216 218 219 220 222 224 229 236 244 251 255 259 260 263 266 269 272
166 167 175 180 186 193 196 197 201 199 200 201 207 212 211 213 214 216 219 224 229 236 243 249 256 260 262 265 264 266 268 269
173 173 176 178 182 185 185 187 187 189 191 195 200 204 207 211 215 219 225 229 236 242 250 256 261 264 265 265 263 266 266 267
187 185 183 183 185 187 190 193 194 194 196 199 205 208 213 217 221 226 233 238 242 248 255 261 264 266 266 266 265 264 266 268
201 198 195 193 193 195 197 199 201 204 206 209 214 217 221 225 230 236 242 245 249 254 260 264 268 268 269 267 266 267 262 265